Regional Weather Roundup
Issued by NWS

Home | Current Version | Previous Version | Graphics & Text | Print | Product List | Glossary Off
Versions: 1 2 3 4 5 6 7 8 9 10 11 12 13 14 15 16 17 18 19 20 21 22 23 24 25 26 27 28 29 30 31 32 33 34 35 36 37 38 39 40 41 42 43 44 45 46 47 48 49 50

000
ASUS43 KFSD 110910
RWRSD

WEATHER ROUNDUP FOR SOUTH DAKOTA
NATIONAL WEATHER SERVICE SIOUX FALLS SD
300 AM CST THU FEB 11 2016

NOTE: "FAIR" INDICATES FEW OR NO CLOUDS BELOW 12,000 FEET WITH NO
SIGNIFICANT WEATHER AND/OR OBSTRUCTIONS TO VISIBILITY.


SDZ001>005-009-010-012>017-111000-
NORTHWEST AND NORTH CENTRAL SOUTH DAKOTA

CITY           SKY/WX    TMP DP  RH WIND       PRES   REMARKS
BUFFALO          N/A     31  28  89 S9        29.98F WCI  23
FAITH            N/A     29  24  82 S9        30.09F WCI  20
MOBRIDGE       CLOUDY    19  15  84 E6        30.15S WCI  11
$$

SDZ012>016-024>037-041>051-057-063-072>074-111000-
SOUTHWEST AND SOUTH CENTRAL SOUTH DAKOTA

CITY           SKY/WX    TMP DP  RH WIND       PRES   REMARKS
RAPID CTY ARPT MOCLDY    26  24  92 S9        30.06F WCI  17
PIERRE         CLOUDY    21  18  88 E5        30.17F WCI  15
CUSTER         CLEAR     36  21  54 W9G18     30.04F
ELLSWORTH AFB  CLOUDY    28  28  97 S10       30.05  WCI  19
PHILIP         CLOUDY    30  27  88 S6        30.13F WCI  24
PINE RIDGE     CLOUDY    24  21  88 E6        30.09F WCI  17
SPEARFISH        N/A     27  25  93 CALM      30.03S
WINNER         CLOUDY    26  21  81 CALM      30.18S
$$

SDZ004>011-016>023-039-040-111000-
NORTHEAST SOUTH DAKOTA

CITY           SKY/WX    TMP DP  RH WIND       PRES   REMARKS
ABERDEEN       CLOUDY    14   8  77 SE3       30.24S
WATERTOWN      CLOUDY    11   5  77 SE3       30.21R
BROOKINGS      CLOUDY    11   6  81 E3        30.22R
SISSETON         N/A      1  -2  87 NW3       30.27R
$$

SDZ017-020-022-023-036>040-048>070-111000-
SOUTHEAST SOUTH DAKOTA

CITY           SKY/WX    TMP DP  RH WIND       PRES   REMARKS
SIOUX FALLS    CLOUDY    13   5  70 E6        30.24S WCI   4
HURON          CLOUDY    16  10  77 CALM      30.25R
CHAMBERLAIN    CLOUDY    22  19  89 CALM      30.19F
MITCHELL       CLOUDY    18  12  77 SE5       30.25R WCI  11
YANKTON        CLOUDY    16  10  79 E7        30.24S WCI   6
$$

ABBREVIATIONS USED IN REMARKS
   TC - TEMPERATURE IN CELSIUS
  WCI - WIND CHILL INDEX
   HX - HEAT INDEX
  VSB - VISIBILITY




USA.gov is the U.S. government's official web portal to all federal, state and local government web resources and services.